Starlink 30959

operational
NORAD ID: 58442 Int'l Des: 2023-183 Owner: SPXS Country: US Constellation: starlink
LEOCIRCULAR

关于 Starlink 30959

正在加载描述...

实时位置

正在加载3D地球...

即将过境

高度历史

Altitude vs Time

uPlot chart will show altitude changes over time

两行轨道根数

1 58442U 23183F 25258.36505874 .00001389 00000-0 11790-3 0 9992
2 58442 43.0032 275.7556 0001230 280.0623 80.0080 15.02519120100341
Epoch: Sep 15, 2025 • Age: 19 hours

当前状态

高度 559.5 km
速度 7.59 km/s
星下点 26.12°N, 113.72°W
发射日期 Nov 28, 2023
运行时间 1.7 years
类型 internet

技术详情

分类 Payload
质量 730.00 kg
干质量 700.00 kg
总质量 730.00 kg
长度 0.30 m
直径 4.10 m
跨度 29.00 m
形状 Box + pan
制造商 SPXS
平台类型 Starlink V2M
阶段状态 In Orbit
所有者/国家 SPXS/US

大型星座

Loading constellations...